N2CJC Weather Reports


time (UTC)temp
C
wind
direction
speed
KPH
gust
KPH
rain 1hr
cm
rain 24hr
cm
rain mn
cm
humidity
%
barometer
mb
20260504050516 10 0 6.4 16.1 0.00 0.00 0.00 60 1008.9
20260504050016 10 0 6.4 17.7 0.00 0.00 0.00 60 1008.9
20260504045516 10 0 6.4 14.5 0.00 0.00 0.00 60 1009.0
20260504045016 11 0 4.8 12.9 0.00 0.00 0.00 59 1008.9
20260504044516 11 0 4.8 9.7 0.00 0.00 0.00 59 1008.9
20260504044016 11 0 8.0 17.7 0.00 0.00 0.00 59 1008.8
20260504043516 11 0 8.0 17.7 0.00 0.00 0.00 59 1008.9
20260504043036 11 0 8.0 17.7 0.00 0.00 0.00 58 1008.9
20260504042516 11 0 4.8 12.9 0.00 0.00 0.00 58 1008.9
20260504042016 11 0 4.8 12.9 0.00 0.00 0.00 58 1008.9
20260504041516 11 0 4.8 14.5 0.00 0.00 0.00 57 1009.1
20260504041016 11 0 4.8 8.0 0.00 0.00 0.00 57 1009.0
20260504040516 11 0 4.8 12.9 0.00 0.00 0.00 57 1009.1
20260504040036 11 0 4.8 12.9 0.00 0.00 0.00 56 1009.0
20260504035517 12 0 4.8 9.7 0.00 0.00 0.00 56 1009.0
20260504035017 12 0 6.4 16.1 0.00 0.00 0.00 55 1009.0
20260504034518 12 0 4.8 9.7 0.00 0.00 0.00 55 1008.9
20260504034015 12 0 6.4 14.5 0.00 0.00 0.00 55 1009.0
20260504033517 12 0 6.4 16.1 0.00 0.00 0.00 55 1008.9
20260504033017 12 0 4.8 8.0 0.00 0.00 0.00 55 1008.9
20260504032518 12 0 4.8 9.7 0.00 0.00 0.00 55 1008.9
20260504032057 12 0 3.2 12.9 0.00 0.00 0.00 55 1008.9
20260504031517 12 0 6.4 14.5 0.00 0.00 0.00 54 1008.9
20260504031018 12 0 4.8 12.9 0.00 0.00 0.00 54 1008.8
20260504030517 12 0 6.4 14.5 0.00 0.00 0.00 54 1008.9
20260504030017 12 0 8.0 17.7 0.00 0.00 0.00 54 1008.9
20260504025538 12 0 11.3 20.9 0.00 0.00 0.00 54 1008.9
20260504025017 12 0 4.8 16.1 0.00 0.00 0.00 55 1008.9
20260504024537 12 0 4.8 12.9 0.00 0.00 0.00 55 1009.0
20260504024037 12 0 4.8 14.5 0.00 0.00 0.00 55 1009.0
20260504023517 12 0 4.8 12.9 0.00 0.00 0.00 54 1009.0
20260504023017 12 0 4.8 12.9 0.00 0.00 0.00 55 1009.1
20260504022517 12 0 3.2 11.3 0.00 0.00 0.00 54 1009.2
20260504022017 12 0 4.8 16.1 0.00 0.00 0.00 55 1009.2
20260504021517 12 0 6.4 16.1 0.00 0.00 0.00 55 1009.1
20260504021017 12 0 9.7 24.1 0.00 0.00 0.00 55 1009.2
20260504020517 12 0 6.4 17.7 0.00 0.00 0.00 56 1009.3
20260504020017 12 0 4.8 14.5 0.00 0.00 0.00 56 1009.3
20260504015517 12 0 4.8 9.7 0.00 0.00 0.00 57 1009.3
20260504015017 12 0 6.4 12.9 0.00 0.00 0.00 57 1009.2
20260504014517 12 0 4.8 14.5 0.00 0.00 0.00 57 1009.1
20260504014017 12 0 6.4 16.1 0.00 0.00 0.00 58 1009.1
20260504013517 12 0 4.8 9.7 0.00 0.00 0.00 58 1009.2
20260504013017 12 0 6.4 12.9 0.00 0.00 0.00 58 1009.2
20260504012538 12 0 6.4 17.7 0.00 0.00 0.00 58 1009.2
20260504012037 12 0 8.0 20.9 0.00 0.00 0.00 58 1009.5
20260504011517 12 0 6.4 16.1 0.00 0.00 0.00 58 1009.6
20260504011017 12 0 9.7 24.1 0.00 0.00 0.00 58 1009.6
20260504010517 12 0 8.0 19.3 0.00 0.00 0.00 58 1009.5
20260504010017 12 0 9.7 19.3 0.00 0.00 0.00 59 1009.4
20260504005517 11 0 8.0 22.5 0.00 0.00 0.00 59 1009.4
20260504005017 11 0 6.4 17.7 0.00 0.00 0.00 59 1009.5
20260504004517 11 0 8.0 24.1 0.00 0.00 0.00 60 1009.4
20260504004017 11 0 6.4 17.7 0.00 0.00 0.00 60 1009.5
20260504003537 11 0 6.4 17.7 0.00 0.00 0.00 60 1009.6
20260504003017 11 0 8.0 22.5 0.00 0.00 0.00 60 1009.7
20260504002517 12 0 6.4 19.3 0.00 0.00 0.00 60 1009.8
20260504002017 12 0 8.0 40.2 0.00 0.00 0.00 60 1009.8
20260504001517 12 0 8.0 20.9 0.00 0.00 0.00 59 1009.7
20260504001017 12 0 6.4 14.5 0.00 0.00 0.00 59 1009.6
20260504000517 12 0 4.8 12.9 0.00 0.00 0.00 59 1009.7
20260504000017 12 0 8.0 17.7 0.00 0.00 0.00 58 1009.7
20260503235517 12 0 4.8 17.7 0.00 0.00 0.00 58 1009.6
20260503235037 12 0 6.4 14.5 0.00 0.00 0.00 57 1009.6
20260503234517 12 0 6.4 17.7 0.00 0.00 0.00 57 1009.3
20260503234037 12 0 6.4 16.1 0.00 0.00 0.00 56 1009.6
20260503233517 12 0 11.3 29.0 0.00 0.00 0.00 55 1009.5
20260503233017 12 0 14.5 32.2 0.00 0.00 0.00 55 1009.2
20260503232517 12 0 16.1 35.4 0.00 0.00 0.00 55 1009.5
20260503232017 13 0 11.3 27.4 0.00 0.00 0.00 54 1009.4
20260503231517 13 0 11.3 29.0 0.00 0.00 0.00 53 1009.2
20260503231017 13 0 12.9 32.2 0.00 0.00 0.00 52 1009.3
20260503230517 13 0 14.5 40.2 0.00 0.00 0.00 51 1009.1
20260503230017 13 0 14.5 40.2 0.00 0.00 0.00 51 1009.0
20260503225517 13 0 11.3 27.4 0.00 0.00 0.00 50 1009.0
20260503225017 13 0 11.3 29.0 0.00 0.00 0.00 50 1008.9
20260503224517 13 0 12.9 27.4 0.00 0.00 0.00 49 1008.9
20260503224037 13 0 11.3 27.4 0.00 0.00 0.00 49 1008.7
20260503223537 13 0 9.7 27.4 0.00 0.00 0.00 48 1009.0
20260503223017 13 0 9.7 22.5 0.00 0.00 0.00 48 1008.9
20260503222517 13 0 8.0 22.5 0.00 0.00 0.00 47 1008.9
20260503222017 13 0 8.0 27.4 0.00 0.00 0.00 47 1008.7
20260503221517 13 0 12.9 30.6 0.00 0.00 0.00 46 1008.8
20260503221017 13 0 12.9 33.8 0.00 0.00 0.00 47 1008.8
20260503220517 13 0 11.3 27.4 0.00 0.00 0.00 47 1008.9
20260503220016 13 0 8.0 19.3 0.00 0.00 0.00 47 1009.0
20260503215517 13 0 9.7 19.3 0.00 0.00 0.00 47 1009.0
20260503215017 13 0 12.9 25.7 0.00 0.00 0.00 47 1009.0
20260503214517 13 0 9.7 19.3 0.00 0.00 0.00 46 1009.0
20260503214037 13 0 12.9 27.4 0.00 0.00 0.00 47 1009.1
20260503213517 14 0 8.0 19.3 0.00 0.00 0.00 46 1009.1
20260503213017 14 0 11.3 25.7 0.00 0.00 0.00 46 1008.9
20260503212517 14 0 12.9 27.4 0.00 0.00 0.00 45 1008.9
20260503212017 15 0 9.7 19.3 0.00 0.00 0.00 45 1009.0
20260503211517 15 0 8.0 17.7 0.00 0.00 0.00 46 1008.8
20260503211017 15 0 9.7 22.5 0.00 0.00 0.00 44 1008.9
20260503210517 15 0 9.7 22.5 0.00 0.00 0.00 44 1009.0
20260503210017 15 0 8.0 25.7 0.00 0.00 0.00 43 1008.9
20260503205517 15 0 9.7 27.4 0.00 0.00 0.00 43 1008.9
20260503205037 15 0 9.7 17.7 0.00 0.00 0.00 43 1008.9
20260503204517 15 0 9.7 19.3 0.00 0.00 0.00 43 1009.0
20260503204017 15 0 9.7 17.7 0.00 0.00 0.00 42 1009.0
20260503203537 15 0 11.3 22.5 0.00 0.00 0.00 43 1009.1
20260503203017 15 0 11.3 27.4 0.00 0.00 0.00 43 1009.1
20260503202517 15 0 11.3 22.5 0.00 0.00 0.00 42 1009.1
20260503202037 15 0 8.0 22.5 0.00 0.00 0.00 42 1009.2
20260503201517 15 0 9.7 25.7 0.00 0.00 0.00 42 1009.4
20260503201017 15 0 11.3 22.5 0.00 0.00 0.00 42 1009.4
20260503200516 15 0 11.3 24.1 0.00 0.00 0.00 42 1009.6
20260503200016 15 0 11.3 29.0 0.00 0.00 0.00 43 1009.6
20260503195517 14 0 14.5 29.0 0.00 0.00 0.00 41 1009.6
20260503195017 14 0 12.9 24.1 0.00 0.00 0.00 42 1009.9
20260503194517 13 0 12.9 24.1 0.00 0.00 0.00 43 1010.0
20260503194037 13 0 9.7 24.1 0.00 0.00 0.00 44 1010.1
20260503193517 13 0 12.9 30.6 0.00 0.00 0.00 41 1010.2
20260503193017 13 0 11.3 33.8 0.00 0.00 0.00 44 1010.3
20260503192517 13 0 12.9 24.1 0.00 0.00 0.00 44 1010.4
20260503192017 13 0 9.7 22.5 0.00 0.00 0.00 43 1010.5
20260503191517 13 0 9.7 22.5 0.00 0.00 0.00 41 1010.5
20260503191017 14 0 11.3 27.4 0.00 0.00 0.00 43 1010.5
20260503190517 13 0 9.7 17.7 0.00 0.00 0.00 42 1010.7
20260503190016 13 0 9.7 25.7 0.00 0.00 0.00 42 1010.8
20260503185537 13 0 9.7 19.3 0.00 0.00 0.00 43 1010.9
20260503185017 13 0 12.9 29.0 0.00 0.00 0.00 41 1011.1
20260503184517 13 0 14.5 33.8 0.00 0.00 0.00 41 1011.1
20260503184037 13 0 14.5 38.6 0.00 0.00 0.00 41 1011.2
20260503183516 13 0 8.0 19.3 0.00 0.00 0.00 43 1011.2
20260503183037 13 0 12.9 27.4 0.00 0.00 0.00 41 1011.2
20260503182517 13 0 14.5 29.0 0.00 0.00 0.00 40 1011.3
20260503182056 13 0 11.3 22.5 0.00 0.00 0.00 43 1011.3
20260503181517 13 0 9.7 22.5 0.00 0.00 0.00 43 1011.6
20260503181017 13 0 11.3 22.5 0.00 0.00 0.00 43 1011.6
20260503180517 13 0 9.7 20.9 0.00 0.00 0.00 41 1011.7
20260503180036 13 0 9.7 22.5 0.00 0.00 0.00 42 1011.7
20260503175517 13 0 11.3 27.4 0.00 0.00 0.00 44 1011.7
20260503175016 13 0 9.7 22.5 0.00 0.00 0.00 45 1011.7
20260503174516 13 0 8.0 17.7 0.00 0.00 0.00 44 1011.6
20260503174016 13 0 12.9 25.7 0.00 0.00 0.00 46 1011.8
20260503173516 13 0 11.3 20.9 0.00 0.00 0.00 47 1011.8
20260503173016 13 0 11.3 20.9 0.00 0.00 0.00 44 1011.9
20260503172536 13 0 11.3 29.0 0.00 0.00 0.00 48 1011.9
20260503172036 13 0 8.0 22.5 0.00 0.00 0.00 47 1012.0
20260503171516 13 0 8.0 19.3 0.00 0.00 0.00 48 1012.0
20260503171016 13 0 11.3 25.7 0.00 0.00 0.00 47 1012.0
20260503170536 13 0 6.4 14.5 0.00 0.00 0.00 48 1012.0
20260503150516 11 0 9.7 20.9 0.00 0.00 0.00 51 1013.1
20260503131036 8 0 6.4 17.7 0.00 0.00 0.00 63 1014.1
20260503130556 7 0 8.0 14.5 0.00 0.00 0.00 62 1014.2
20260503110516 1 0 3.2 6.4 0.00 0.03 0.00 89 1013.8
20260503081557 1 0.0 0.0 0.00 0.03 0.00 82 1013.4
20260503081018 1 0.0 0.0 0.00 0.03 0.00 82 1013.6
20260503080518 1 0.0 0.0 0.00 0.03 0.00 81 1013.5
20260503072517 2 0.0 0.0 0.00 0.03 0.00 80 1013.6
20260503072037 2 0.0 0.0 0.00 0.03 0.00 80 1013.6
20260503071518 2 0.0 4.8 0.00 0.03 0.00 79 1013.6
20260503071017 2 0.0 1.6 0.00 0.03 0.00 79 1013.6
20260503070537 2 0.0 1.6 0.00 0.03 0.00 79 1013.6
20260503055017 4 0 3.2 6.4 0.00 0.03 0.00 77 1013.9
20260503054517 4 0 3.2 8.0 0.00 0.03 0.00 77 1013.9
20260503054017 4 0 1.6 4.8 0.00 0.03 0.00 77 1014.1
20260503053517 4 0 3.2 8.0 0.00 0.03 0.00 77 1014.1